�������l�o���
Date,Time,MP-1(��Sv/h),MP-2(��Sv/h),MP-3(��Sv/h),MP-4(��Sv/h),MP-5(��Sv/h),MP-6(��Sv/h),MP-7(��Sv/h),MP-8(��Sv/h),����,����(m/s),���J
2020/02/02,00:00,0.696,0.996,0.649,1.240,0.863,0.399,0.699,0.666,���쐼,4.7,��
2020/02/02,00:10,0.694,0.994,0.650,1.240,0.862,0.400,0.700,0.665,���쐼,4.7,��
2020/02/02,00:20,0.694,0.996,0.650,1.239,0.860,0.400,0.700,0.666,��,3.8,��
2020/02/02,00:30,0.695,0.995,0.650,1.240,0.862,0.401,0.698,0.665,��,5.2,��
2020/02/02,00:40,0.694,0.993,0.651,1.242,0.862,0.401,0.701,0.666,��,6.3,��
2020/02/02,00:50,0.694,0.994,0.650,1.241,0.862,0.401,0.699,0.667,���쐼,5.8,��
2020/02/02,01:00,0.692,0.993,0.651,1.241,0.862,0.400,0.698,0.665,��,6.1,��
2020/02/02,01:10,0.692,0.994,0.650,1.242,0.862,0.402,0.701,0.666,���쐼,6.6,��
2020/02/02,01:20,0.696,0.994,0.653,1.241,0.861,0.400,0.702,0.665,���쐼,5.3,��
2020/02/02,01:30,0.693,0.994,0.650,1.243,0.864,0.399,0.700,0.666,��,5.2,��
2020/02/02,01:40,0.693,0.994,0.651,1.241,0.861,0.402,0.699,0.665,���쐼,5.5,��
2020/02/02,01:50,0.693,0.993,0.650,1.240,0.861,0.401,0.702,0.666,���쐼,5.0,��
2020/02/02,02:00,0.696,0.994,0.648,1.241,0.860,0.400,0.700,0.664,���쐼,4.4,��
2020/02/02,02:10,0.692,0.994,0.653,1.242,0.862,0.399,0.697,0.667,���쐼,5.3,��
2020/02/02,02:20,0.695,0.994,0.649,1.241,0.862,0.398,0.701,0.666,���쐼,5.8,��
2020/02/02,02:30,0.694,0.996,0.649,1.238,0.863,0.399,0.700,0.665,��,6.0,��
2020/02/02,02:40,0.692,0.993,0.648,1.241,0.862,0.400,0.699,0.664,��,6.0,��
2020/02/02,02:50,0.694,0.994,0.651,1.242,0.861,0.401,0.699,0.665,��,5.5,��
2020/02/02,03:00,0.694,0.993,0.650,1.240,0.859,0.399,0.701,0.666,��,4.5,��
2020/02/02,03:10,0.693,0.995,0.650,1.240,0.860,0.399,0.699,0.666,��,5.2,��
2020/02/02,03:20,0.693,0.992,0.651,1.241,0.862,0.400,0.698,0.666,��,5.2,��
2020/02/02,03:30,0.694,0.995,0.649,1.239,0.860,0.400,0.701,0.666,���k��,5.2,��
2020/02/02,03:40,0.695,0.994,0.650,1.242,0.863,0.399,0.699,0.666,��,4.1,��
2020/02/02,03:50,0.692,0.992,0.650,1.240,0.857,0.400,0.701,0.665,��,4.4,��
2020/02/02,04:00,0.694,0.994,0.649,1.242,0.859,0.400,0.699,0.665,���쐼,4.4,��
2020/02/02,04:10,0.693,0.993,0.649,1.241,0.860,0.400,0.702,0.665,��,3.8,��
2020/02/02,04:20,0.694,0.995,0.650,1.240,0.861,0.399,0.699,0.665,��,3.8,��
2020/02/02,04:30,0.693,0.993,0.651,1.240,0.860,0.400,0.700,0.664,��,5.0,��
2020/02/02,04:40,0.694,0.992,0.652,1.241,0.859,0.399,0.699,0.665,��,4.2,��
2020/02/02,04:50,0.694,0.994,0.649,1.240,0.857,0.400,0.700,0.666,��,6.0,��
2020/02/02,05:00,0.694,0.994,0.649,1.241,0.859,0.399,0.700,0.666,��,5.6,��
2020/02/02,05:10,0.694,0.992,0.651,1.242,0.858,0.399,0.701,0.664,��,6.0,��
2020/02/02,05:20,0.693,0.992,0.649,1.241,0.858,0.401,0.699,0.665,��,5.5,��
2020/02/02,05:30,0.693,0.994,0.650,1.239,0.861,0.399,0.700,0.667,��,5.5,��
2020/02/02,05:40,0.693,0.992,0.649,1.239,0.860,0.399,0.698,0.665,��,5.2,��
2020/02/02,05:50,0.693,0.991,0.650,1.239,0.860,0.399,0.700,0.665,��,5.2,��
2020/02/02,06:00,0.692,0.993,0.648,1.239,0.858,0.400,0.700,0.666,��,5.3,��
2020/02/02,06:10,0.692,0.992,0.648,1.242,0.860,0.399,0.697,0.667,��,5.0,��
2020/02/02,06:20,0.691,0.992,0.649,1.239,0.858,0.399,0.699,0.666,��,4.6,��
2020/02/02,06:30,0.694,0.992,0.649,1.240,0.858,0.398,0.699,0.667,��,4.1,��
2020/02/02,06:40,0.693,0.992,0.648,1.239,0.856,0.398,0.698,0.665,��,3.5,��
2020/02/02,06:50,0.695,0.994,0.649,1.240,0.858,0.399,0.699,0.665,���k��,2.9,��
2020/02/02,07:00,0.693,0.993,0.649,1.241,0.859,0.400,0.700,0.665,��,3.4,��
2020/02/02,07:10,0.694,0.991,0.648,1.240,0.861,0.399,0.699,0.667,��,3.8,��
2020/02/02,07:20,0.694,0.992,0.651,1.240,0.860,0.398,0.699,0.666,��,3.0,��
2020/02/02,07:30,0.694,0.994,0.651,1.240,0.858,0.399,0.699,0.666,���쐼,3.6,��
2020/02/02,07:40,0.692,0.990,0.649,1.242,0.861,0.399,0.700,0.665,��,2.3,��
2020/02/02,07:50,0.692,0.993,0.650,1.241,0.861,0.399,0.700,0.666,��,3.8,��
2020/02/02,08:00,0.693,0.993,0.650,1.240,0.861,0.398,0.699,0.666,��,3.1,��
2020/02/02,08:10,0.693,0.993,0.647,1.242,0.861,0.399,0.699,0.666,��,2.9,��
2020/02/02,08:20,0.694,0.993,0.643,1.238,0.861,0.399,0.700,0.664,���k��,2.3,��
2020/02/02,08:30,0.695,0.994,0.642,1.241,0.860,0.400,0.701,0.665,�k��,2.3,��
2020/02/02,08:40,0.694,0.993,0.641,1.241,0.861,0.400,0.700,0.667,���k��,2.0,��
2020/02/02,08:50,0.697,0.995,0.642,1.240,0.862,0.400,0.699,0.666,���k��,2.4,��
2020/02/02,09:00,0.694,0.997,0.643,1.242,0.863,0.400,0.702,0.667,���k��,2.5,��
2020/02/02,09:10,0.694,0.997,0.645,1.241,0.861,0.399,0.700,0.665,��,2.0,��
2020/02/02,09:20,0.696,0.996,0.644,1.243,0.864,0.400,0.703,0.666,���쐼,1.6,��
2020/02/02,09:30,0.695,0.999,0.641,1.240,0.861,0.398,0.700,0.668,���쐼,1.4,��
2020/02/02,09:40,0.695,0.995,0.643,1.242,0.862,0.400,0.700,0.666,��쐼,1.3,��
2020/02/02,09:50,0.695,0.997,0.644,1.241,0.860,0.400,0.699,0.665,�쐼,1.8,��
2020/02/02,10:00,0.696,0.995,0.642,1.241,0.860,0.400,0.699,0.667,�쐼,2.1,��
2020/02/02,10:10,0.697,0.996,0.643,1.243,0.862,0.400,0.700,0.666,��,2.5,��
2020/02/02,10:20,0.696,0.993,0.642,1.244,0.863,0.401,0.698,0.665,���쐼,2.6,��
2020/02/02,10:30,0.696,0.994,0.644,1.243,0.863,0.400,0.698,0.666,���쐼,2.0,��
2020/02/02,10:40,0.697,0.996,0.644,1.241,0.865,0.403,0.699,0.667,�k��,0.9,��
2020/02/02,10:50,0.696,0.995,0.643,1.242,0.862,0.402,0.699,0.666,���쓌,1.6,��
2020/02/02,11:00,0.697,0.996,0.643,1.245,0.865,0.400,0.700,0.666,�쓌,1.8,��
2020/02/02,11:10,0.698,0.993,0.644,1.244,0.864,0.401,0.699,0.666,���쓌,2.7,��
2020/02/02,11:20,0.696,0.995,0.644,1.245,0.866,0.400,0.698,0.667,�쓌,1.7,��
2020/02/02,11:30,0.695,0.993,0.643,1.243,0.865,0.401,0.698,0.666,��,1.5,��
2020/02/02,11:40,0.698,0.994,0.644,1.246,0.863,0.400,0.700,0.666,�쐼,1.7,��
2020/02/02,11:50,0.699,0.996,0.643,1.245,0.866,0.401,0.698,0.667,���k��,1.8,��
2020/02/02,12:00,0.697,0.998,0.645,1.243,0.869,0.401,0.698,0.668,���쓌,2.8,��
2020/02/02,12:10,0.698,0.996,0.645,1.244,0.866,0.402,0.699,0.668,���쓌,3.9,��
2020/02/02,12:20,0.697,0.995,0.648,1.243,0.865,0.402,0.699,0.668,�쓌,3.5,��
2020/02/02,12:30,0.698,0.997,0.648,1.245,0.866,0.401,0.699,0.666,�쓌,4.2,��
2020/02/02,12:40,0.696,0.994,0.647,1.242,0.866,0.400,0.697,0.665,�쓌,2.9,��
2020/02/02,12:50,0.698,0.999,0.647,1.246,0.863,0.401,0.699,0.668,�쓌,3.3,��
2020/02/02,13:00,0.698,0.997,0.646,1.246,0.863,0.402,0.699,0.668,��쓌,3.8,��
2020/02/02,13:10,0.699,0.999,0.646,1.243,0.867,0.401,0.700,0.668,��쓌,3.2,��
2020/02/02,13:20,0.699,0.998,0.646,1.244,0.865,0.402,0.699,0.666,��,3.0,��
2020/02/02,13:30,0.699,1.000,0.647,1.243,0.866,0.401,0.700,0.669,��,3.0,��
2020/02/02,13:40,0.700,1.002,0.648,1.246,0.866,0.402,0.699,0.667,��쐼,2.8,�L
2020/02/02,13:50,0.699,1.003,0.646,1.244,0.867,0.401,0.701,0.667,���쐼,2.0,��
2020/02/02,14:00,0.699,1.004,0.645,1.244,0.870,0.404,0.701,0.667,���쐼,4.1,�L
2020/02/02,14:10,0.700,1.004,0.646,1.242,0.869,0.403,0.700,0.668,���쐼,4.2,�L
2020/02/02,14:20,0.700,1.003,0.648,1.244,0.869,0.404,0.699,0.668,��,4.0,��
2020/02/02,14:30,0.703,1.003,0.647,1.246,0.870,0.401,0.701,0.669,��,5.0,��
2020/02/02,14:40,0.699,1.006,0.647,1.246,0.869,0.403,0.701,0.665,���k��,4.7,��
2020/02/02,14:50,0.700,1.006,0.650,1.246,0.867,0.403,0.700,0.666,�k��,5.3,��
2020/02/02,15:00,0.701,1.002,0.650,1.245,0.868,0.403,0.701,0.665,�k��,4.6,��
2020/02/02,15:10,0.698,1.002,0.649,1.244,0.866,0.403,0.701,0.665,�k��,4.2,��
2020/02/02,15:20,0.701,1.003,0.652,1.245,0.867,0.403,0.701,0.665,�k��,3.8,��
2020/02/02,15:30,0.701,1.004,0.654,1.244,0.866,0.402,0.700,0.668,�k��,3.2,��
2020/02/02,15:40,0.701,1.002,0.653,1.243,0.867,0.403,0.700,0.669,�k��,4.2,��
2020/02/02,15:50,0.699,1.001,0.655,1.243,0.866,0.403,0.702,0.668,�k��,3.1,��
2020/02/02,16:00,0.700,1.004,0.653,1.244,0.867,0.402,0.699,0.668,�k��,3.9,��
2020/02/02,16:10,0.699,1.001,0.655,1.245,0.871,0.402,0.699,0.665,�k��,4.5,��
2020/02/02,16:20,0.698,0.999,0.653,1.245,0.868,0.404,0.700,0.667,���k��,3.8,��
2020/02/02,16:30,0.698,1.005,0.653,1.245,0.869,0.403,0.701,0.667,���k��,2.9,��
2020/02/02,16:40,0.699,1.003,0.654,1.246,0.867,0.402,0.700,0.666,�k��,3.9,��
2020/02/02,16:50,0.697,1.000,0.655,1.245,0.868,0.402,0.701,0.667,�k��,3.4,��
2020/02/02,17:00,0.699,1.002,0.655,1.245,0.868,0.401,0.702,0.667,�k��,3.6,��
2020/02/02,17:10,0.698,1.000,0.653,1.247,0.869,0.402,0.702,0.668,���k��,3.3,��
2020/02/02,17:20,0.697,1.001,0.655,1.245,0.867,0.402,0.700,0.666,�k��,3.1,��
2020/02/02,17:30,0.697,1.002,0.653,1.245,0.866,0.402,0.699,0.666,�k��,3.5,��
2020/02/02,17:40,0.697,0.999,0.654,1.244,0.865,0.402,0.700,0.666,���k��,4.1,��
2020/02/02,17:50,0.696,1.002,0.652,1.245,0.867,0.402,0.701,0.666,���k��,3.3,��
2020/02/02,18:00,0.696,1.001,0.652,1.244,0.868,0.401,0.701,0.668,���k��,3.3,��
2020/02/02,18:10,0.696,1.002,0.654,1.244,0.868,0.401,0.701,0.668,���k��,3.1,��
2020/02/02,18:20,0.697,0.999,0.653,1.244,0.867,0.400,0.702,0.666,���k��,3.6,��
2020/02/02,18:30,0.697,0.999,0.652,1.246,0.866,0.401,0.700,0.667,�k��,2.1,��
2020/02/02,18:40,0.697,0.999,0.653,1.246,0.866,0.401,0.701,0.666,�k��,2.0,��
2020/02/02,18:50,0.696,0.999,0.652,1.244,0.868,0.400,0.702,0.666,�k��,1.9,��
2020/02/02,19:00,0.697,1.001,0.652,1.244,0.866,0.401,0.700,0.666,�k��,2.1,��
2020/02/02,19:10,0.697,1.001,0.652,1.244,0.865,0.401,0.702,0.666,�k��,2.2,��
2020/02/02,19:20,0.694,0.999,0.653,1.246,0.866,0.403,0.702,0.666,���k��,2.3,��
2020/02/02,19:30,0.697,1.000,0.654,1.243,0.866,0.399,0.701,0.665,���k��,2.6,��
2020/02/02,19:40,0.695,1.002,0.654,1.243,0.866,0.401,0.701,0.665,���k��,2.3,��
2020/02/02,19:50,0.695,0.998,0.653,1.245,0.867,0.400,0.698,0.667,���k��,2.4,��
2020/02/02,20:00,0.696,0.998,0.655,1.245,0.867,0.402,0.702,0.666,���k��,2.9,��
2020/02/02,20:10,0.697,1.001,0.654,1.246,0.868,0.401,0.699,0.668,���k��,2.6,��
2020/02/02,20:20,0.696,1.001,0.652,1.244,0.867,0.400,0.699,0.666,��,3.9,��
2020/02/02,20:30,0.696,0.999,0.653,1.244,0.866,0.400,0.700,0.668,��,3.8,��
2020/02/02,20:40,0.696,0.999,0.653,1.242,0.866,0.400,0.701,0.667,���k��,4.3,��
2020/02/02,20:50,0.698,0.999,0.654,1.243,0.867,0.400,0.700,0.666,���k��,3.5,��
2020/02/02,21:00,0.697,1.001,0.654,1.245,0.865,0.399,0.700,0.666,���k��,3.8,��
2020/02/02,21:10,0.697,1.000,0.654,1.244,0.867,0.400,0.701,0.666,���k��,4.7,��
2020/02/02,21:20,0.697,0.999,0.653,1.246,0.868,0.399,0.699,0.666,��,4.5,��
2020/02/02,21:30,0.695,1.000,0.654,1.246,0.866,0.399,0.701,0.667,���k��,4.4,��
2020/02/02,21:40,0.695,0.999,0.653,1.243,0.867,0.400,0.701,0.666,���k��,3.5,��
2020/02/02,21:50,0.695,0.998,0.651,1.243,0.866,0.401,0.701,0.665,���k��,5.2,��
2020/02/02,22:00,0.697,0.998,0.652,1.244,0.866,0.399,0.700,0.667,���k��,5.3,��
2020/02/02,22:10,0.695,1.000,0.652,1.245,0.866,0.402,0.699,0.668,���k��,5.5,��
2020/02/02,22:20,0.696,1.000,0.652,1.246,0.867,0.400,0.699,0.668,���k��,6.3,��
2020/02/02,22:30,0.696,0.999,0.653,1.245,0.867,0.401,0.701,0.667,���k��,5.8,��
2020/02/02,22:40,0.698,1.000,0.653,1.244,0.866,0.401,0.699,0.667,���k��,4.2,��
2020/02/02,22:50,0.696,0.999,0.652,1.246,0.869,0.400,0.700,0.666,��,4.5,��
2020/02/02,23:00,0.695,1.000,0.654,1.245,0.866,0.399,0.701,0.665,���k��,3.8,��
2020/02/02,23:10,0.696,0.997,0.653,1.246,0.868,0.401,0.700,0.666,���k��,3.6,��
2020/02/02,23:20,0.696,1.001,0.651,1.244,0.867,0.400,0.703,0.667,�k��,3.1,��
2020/02/02,23:30,0.697,1.000,0.652,1.244,0.868,0.400,0.701,0.667,�k��,3.8,��
2020/02/02,23:40,0.695,0.998,0.653,1.246,0.866,0.399,0.700,0.667,�k��,4.7,��
2020/02/02,23:50,0.696,1.000,0.655,1.245,0.869,0.400,0.700,0.667,�k��,6.6,��
